Weather History for Sedalia, MO

Change the Weather History Date:

Thursday, March 14, 2013

  Actual Average Record
Temperature  
Mean Temperature 49 °F 46 °F  
Max Temperature 68 °F 56 °F 83 °F (1971)
Min Temperature 29 °F 35 °F 7 °F (1993)
Degree Days  
Heating Degree Days 16 20  
Month to date heating degree days 397 307  
Since 1 July heating degree days 3835 3924  
Cooling Degree Days 0 0  
Month to date cooling degree days 0 0  
Year to date cooling degree days 1 0  
Moisture  
Dew Point 33 °F    
Average Humidity 58    
Maximum Humidity 78    
Minimum Humidity 37    
Precipitation  
Precipitation 0.00 in 0.09 in 0.34 in (1964)
Month to date precipitation 1.36 1.14  
Year to date precipitation 6.63 4.74  
Sea Level Pressure  
Sea Level Pressure 30.18 in    
Wind  
Wind Speed 9 mph (SW)    
Max Wind Speed 26 mph    
Max Gust Speed 35 mph    
Visibility 10 miles    
Events      
T = Trace of Precipitation, MM = Missing Value Source: NWS Daily Summary

Daily Weather History Graph

Daily Weather History Graph

Search for Another Location

Airport:

Trip Planner

Search our weather history database for the weather conditions in past years. The results will help you decide how hot, cold, wet, or windy it might be!

Date:

Astronomy

Mar. 14, 2013 Rise Set
Actual Time 7:25 AM CDT 7:19 PM CDT
Civil Twilight 6:58 AM CDT 7:45 PM CDT
Nautical Twilight 6:27 AM CDT 8:16 PM CDT
Astronomical Twilight 5:56 AM CDT 8:47 PM CDT
Moon 8:41 AM CDT (3/14) 10:33 PM CDT (3/14)
Length of Visible Light 12h 46m
Length of Day
11h 53m
Waxing Crescent, 9% of the Moon is Illuminated
Mar 14
Waxing Crescent
Mar 19
First Quarter
Mar 27
Full
Apr 2
Last Quarter
Apr 10
New

Hourly Weather History & Observations

Time (CDT) Temp. Windchill Dew Point Humidity Pressure Visibility Wind Dir Wind Speed Gust Speed Precip Events Conditions
12:53 AM 28.9 °F 22.8 °F 21.0 °F 72% 30.39 in 10.0 mi SSE 5.8 mph - N/A   Clear
1:53 AM 30.9 °F 25.2 °F 21.9 °F 69% 30.37 in 10.0 mi SSE 5.8 mph - N/A   Clear
2:53 AM 30.9 °F 22.8 °F 24.1 °F 76% 30.35 in 10.0 mi SSE 9.2 mph - N/A   Clear
3:53 AM 32.0 °F 24.8 °F 23.0 °F 69% 30.31 in 10.0 mi SSE 8.1 mph - N/A   Clear
4:53 AM 32.0 °F 25.6 °F 24.1 °F 73% 30.29 in 10.0 mi SSE 6.9 mph - N/A   Partly Cloudy
6:53 AM 33.1 °F 26.9 °F 23.0 °F 66% 30.27 in 10.0 mi South 6.9 mph - N/A   Partly Cloudy
7:53 AM 36.0 °F 28.5 °F 25.0 °F 64% 30.24 in 10.0 mi South 10.4 mph - N/A   Partly Cloudy
8:53 AM 39.9 °F 32.5 °F 25.0 °F 55% 30.23 in 10.0 mi South 12.7 mph - N/A   Mostly Cloudy
9:53 AM 45.0 °F 37.6 °F 25.0 °F 46% 30.20 in 10.0 mi SSW 17.3 mph - N/A   Mostly Cloudy
10:53 AM 51.1 °F - 28.9 °F 43% 30.17 in 10.0 mi SW 17.3 mph 23.0 mph N/A   Mostly Cloudy
11:53 AM 55.9 °F - 32.0 °F 40% 30.15 in 10.0 mi SW 23.0 mph 29.9 mph N/A   Partly Cloudy
12:53 PM 61.0 °F - 37.0 °F 41% 30.13 in 10.0 mi WSW 15.0 mph 21.9 mph N/A   Clear
1:53 PM 64.0 °F - 37.9 °F 38% 30.11 in 10.0 mi WSW 19.6 mph 28.8 mph N/A   Clear
2:53 PM 66.0 °F - 39.0 °F 37% 30.09 in 10.0 mi WSW 11.5 mph 26.5 mph N/A   Clear
3:53 PM 66.9 °F - 41.0 °F 39% 30.08 in 10.0 mi West 12.7 mph - N/A   Clear
4:53 PM 68.0 °F - 42.1 °F 39% 30.08 in 10.0 mi West 10.4 mph 17.3 mph N/A   Clear
5:53 PM 68.0 °F - 43.0 °F 40% 30.07 in 10.0 mi West 11.5 mph - N/A   Clear
6:53 PM 64.0 °F - 44.1 °F 48% 30.07 in 10.0 mi West 5.8 mph - N/A   Clear
7:53 PM 63.0 °F - 39.9 °F 43% 30.08 in 10.0 mi WNW 3.5 mph - N/A   Clear
8:53 PM 61.0 °F - 39.9 °F 46% 30.09 in 10.0 mi Calm Calm - N/A   Clear
9:53 PM 59.0 °F - 41.0 °F 51% 30.09 in 10.0 mi SW 3.5 mph - N/A   Clear
10:53 PM 57.0 °F - 41.0 °F 55% 30.09 in 10.0 mi Calm Calm - N/A   Clear
11:53 PM 55.9 °F - 39.9 °F 55% 30.08 in 10.0 mi WNW 3.5 mph - N/A   Clear